« Back
NWS Peachtree City, Ga » Text Product » GA Regional Weather Roundup


Printer-friendly Version
Current Version              Previous Versions:   1  2  3  4  5  6  7  8  9  

Regional Weather Roundup

640
ASUS42 KFFC 220803
RWRGA
WEATHER ROUNDUP FOR GEORGIA
NATIONAL WEATHER SERVICE PEACHTREE CITY GA
400 AM EDT TUE JUL 22 2014

NOTE: "FAIR" INDICATES FEW OR NO CLOUDS BELOW 12,000 FEET WITH NO
SIGNIFICANT WEATHER AND/OR OBSTRUCTIONS TO VISIBILITY.

* = USE WITH CAUTION. THE STATIONS MARKED WITH AN ASTERISK MAY NOT
REPORT WEATHER SUCH AS PRECIPITATION, FOG, OR THUNDER AND ARE NOT
QUALITY CONTROLLED BY NWS.

THE REMARK "TC" DENOTES TEMPERATURE READING IN DEGREES CELSIUS.

GAZ001>058-220900-
NORTH GEORGIA

CITY           SKY/WX    TMP DP  RH WIND       PRES   REMARKS
ATLANTA        CLOUDY    72  69  90 E5        30.09F
ATHENS         CLOUDY    72  70  93 N3        30.08F
CHAMBLEE       CLOUDY    72  69  90 CALM      30.09F
PEACHTREE CITY CLOUDY    72  69  90 E3        30.08F
ROME           CLOUDY    72  71  97 CALM      30.07S
WEST ATLANTA   CLOUDY    73  69  87 CALM      30.08F
GAINESVILLE    CLOUDY    71  69  93 NE7       30.13F
CARTERSVILLE   CLOUDY    73  69  87 E3        30.09S


CITY           SKY/WX    TMP DP  RH WIND       PRES   REMARKS
DALTON*        MOCLDY    70  70 100 CALM      30.09R
MARIETTA       CLOUDY    72  72 100 SE5       30.09F
$$

GAZ059>098-102>109-220900-
CENTRAL GEORGIA

CITY           SKY/WX    TMP DP  RH WIND       PRES   REMARKS
AUGUSTA-BUSH   LGT RAIN  73  71  93 N5        30.06S
AUGUSTA-DANIEL CLOUDY    73  71  93 N7        30.07F
COLUMBUS       CLOUDY    73  71  93 CALM      30.04R
MACON          CLOUDY    71  71 100 CALM      30.06R
ROBINS AFB     CLOUDY    72  71  98 N3        30.05S


CITY           SKY/WX    TMP DP  RH WIND       PRES   REMARKS
LAGRANGE*      CLOUDY    75  74  96 CALM      30.06F
SYLVANIA*      CLOUDY    74  74 100 NE3       30.06S FOG
MILLEDGEVILLE* CLOUDY    55 N/A N/A E5        30.07S
$$

GAZ099>101-110>166-220900-
SOUTH GEORGIA

CITY           SKY/WX    TMP DP  RH WIND       PRES   REMARKS
SAVANNAH       PTCLDY    73  70  90 N3        30.03S
VALDOSTA       CLEAR     73  68  84 CALM      30.02F
ALMA           MOCLDY    72  70  93 CALM      30.03S
ST SIMONS      MOCLDY    74  73  97 NW3       30.02R
FT STEWART     CLOUDY    74  72  95 CALM      30.02F
ALBANY         CLOUDY    74  73  97 W3        30.04F
HUNTER AFB     PTCLDY    72  72 100 N2        30.00F
MOODY AFB      CLEAR     72  72 100 CALM      30.02F
BRUNSWICK      MOCLDY    73  70  88 CALM      30.03R


CITY           SKY/WX    TMP DP  RH WIND       PRES   REMARKS
BAINBRIDGE*    CLEAR     77  73  88 CALM      30.02F
MOULTRIE*      CLOUDY    72  72 100 CALM      30.03F
VIDALIA*         N/A     73  72  94 CALM      30.04F
WAYCROSS*      MOCLDY    76  76  98 CALM      30.02F
DOUGLAS*       CLOUDY    73  72  94 CALM      30.04S
$$



USA.gov is the U.S. government's official web portal to all federal, state and local government web resources and services.